GW6388 Weather Reports


Display with metric or nautical units.
time (UTC)temp
F
wind
direction
speed
MPH
gust
MPH
rain 1hr
in
rain 24hr
in
rain mn
in
humidity
%
barometer
mb
20260510033629 53 33 0.0 0.0 0.00 0.33 0.33 97 1091.7
20260510033127 53 33 0.0 0.0 0.00 0.33 0.33 97 1091.4
20260510032623 53 24 0.0 0.0 0.00 0.33 0.33 97 1091.8
20260510032118 54 27 0.0 0.0 0.00 0.33 0.33 97 1091.8
20260510031613 54 38 0.0 0.0 0.00 0.33 0.33 97 1091.4
20260510031110 54 30 0.0 0.0 0.00 0.33 0.33 97 1091.7
20260510030605 54 23 0.0 1.0 0.00 0.33 0.33 97 1091.9
20260510030103 54 34 0.0 1.0 0.00 0.33 0.33 97 1091.7
20260510025600 54 36 0.0 0.0 0.00 0.33 0.33 97 1091.9
20260510025057 54 29 0.0 2.0 0.07 0.33 0.33 97 1092.1
20260510024554 54 340 1.0 2.0 0.07 0.33 0.33 97 1092.1
20260510024050 54 64 0.0 2.0 0.00 0.32 0.32 97 1092.1
20260510023546 54 53 1.0 2.0 0.12 0.32 0.32 96 1092.2
20260510023044 54 67 1.0 3.0 0.19 0.32 0.32 96 1092.2
20260510022544 54 133 3.0 3.0 0.19 0.30 0.30 96 1092.6
20260510022044 54 45 0.0 0.0 0.24 0.29 0.29 95 1092.8
20260510021540 54 2 0.0 0.0 0.17 0.27 0.27 95 1092.9
20260510021038 54 29 0.0 0.0 0.17 0.25 0.25 95 1092.9
20260510020538 54 338 3.0 3.0 0.19 0.24 0.24 94 1092.9
20260510020034 54 18 0.0 1.0 0.38 0.22 0.22 94 1092.9
20260510015530 54 13 4.0 6.0 0.31 0.20 0.20 93 1092.9
20260510015025 54 312 3.0 6.0 0.12 0.16 0.16 92 1092.7
20260510014522 54 59 2.0 3.0 0.42 0.15 0.15 91 1092.3
20260510014020 55 351 3.0 9.0 0.35 0.13 0.13 87 1092.1
20260510013514 57 23 2.0 3.0 0.00 0.07 0.07 80 1092.2
20260510013010 59 236 13.0 17.0 0.00 0.07 0.07 74 1092.2
20260510012504 61 246 5.0 22.0 0.00 0.07 0.07 68 1092.1
20260510012000 62 339 2.0 3.0 0.00 0.07 0.07 64 1090.1
20260510011455 62 22 0.0 1.0 0.00 0.07 0.07 63 1089.8
20260510010951 62 45 0.0 3.0 0.00 0.07 0.07 63 1089.3
20260510010448 62 28 0.0 1.0 0.00 0.07 0.07 62 1089.4
20260510005945 62 33 0.0 1.0 0.00 0.07 0.07 62 1089.6
20260510005441 62 28 0.0 0.0 0.00 0.07 0.07 62 1089.5
20260510004939 62 34 0.0 1.0 0.00 0.07 0.07 61 1089.2
20260510004436 63 23 0.0 1.0 0.00 0.07 0.07 61 1089.3
20260510003934 63 20 0.0 2.0 0.00 0.07 0.07 60 1089.5
20260510003431 63 30 0.0 1.0 0.00 0.07 0.07 60 1089.4
20260510002930 64 19 0.0 2.0 0.00 0.07 0.07 60 1089.4
20260510002427 64 25 0.0 1.0 0.00 0.07 0.07 58 1089.3
20260510001923 64 25 1.0 2.0 0.00 0.07 0.07 57 1089.4
20260510001421 65 29 0.0 1.0 0.00 0.07 0.07 57 1089.3
20260510000919 65 261 1.0 4.0 0.00 0.07 0.07 56 1089.0
20260510000415 65 88 1.0 3.0 0.00 0.07 0.07 56 1088.8
20260509235911 65 245 6.0 9.0 0.00 0.07 0.07 56 1089.1
20260509235408 66 318 1.0 3.0 0.00 0.07 0.07 56 1088.9
20260509234903 66 297 2.0 7.0 0.00 0.07 0.07 54 1088.9
20260509234401 67 84 2.0 4.0 0.00 0.07 0.07 54 1089.0
20260509233859 67 211 4.0 7.0 0.00 0.07 0.07 53 1089.1
20260509233356 67 307 3.0 6.0 0.00 0.07 0.07 53 1088.8
20260509232852 67 18 0.0 4.0 0.00 0.07 0.07 53 1088.7
20260509232350 67 231 7.0 9.0 0.00 0.07 0.07 52 1088.4
20260509231846 67 295 2.0 7.0 0.00 0.07 0.07 53 1088.9
20260509231343 68 5 1.0 7.0 0.00 0.07 0.07 54 1088.5
20260509230841 67 350 1.0 4.0 0.00 0.07 0.07 54 1088.8
20260509230337 68 304 7.0 8.0 0.00 0.07 0.07 53 1088.9
20260509225832 68 269 1.0 4.0 0.00 0.07 0.07 54 1088.8
20260509225330 67 345 2.0 7.0 0.00 0.07 0.07 53 1088.8
20260509224826 67 220 4.0 7.0 0.00 0.07 0.07 54 1088.5
20260509224322 68 246 6.0 8.0 0.00 0.07 0.07 53 1088.8
20260509223819 68 264 3.0 7.0 0.00 0.07 0.07 53 1088.4
20260509223316 68 26 0.0 2.0 0.00 0.07 0.07 54 1088.7
20260509222812 68 215 2.0 3.0 0.00 0.07 0.07 53 1088.2
20260509222308 68 233 6.0 8.0 0.00 0.07 0.07 53 1088.3
20260509221803 68 355 2.0 4.0 0.00 0.07 0.07 53 1088.7
20260509221301 68 254 2.0 4.0 0.00 0.07 0.07 53 1088.9
20260509220756 68 264 5.0 8.0 0.00 0.07 0.07 51 1088.4
20260509220253 68 328 3.0 6.0 0.00 0.07 0.07 55 1088.7
20260509215748 68 308 4.0 6.0 0.00 0.07 0.07 54 1088.8
20260509215245 68 255 1.0 7.0 0.00 0.07 0.07 54 1088.8
20260509214742 68 20 3.0 8.0 0.00 0.07 0.07 53 1088.5
20260509214239 68 259 3.0 9.0 0.00 0.07 0.07 54 1088.8
20260509213736 67 277 3.0 11.0 0.00 0.07 0.07 54 1089.0
20260509213231 67 275 4.0 6.0 0.00 0.07 0.07 56 1088.8
20260509212729 67 144 2.0 11.0 0.00 0.07 0.07 55 1089.0
20260509212226 67 22 1.0 9.0 0.00 0.07 0.07 55 1089.0
20260509211722 67 145 3.0 8.0 0.00 0.07 0.07 55 1088.8
20260509211219 67 249 5.0 9.0 0.00 0.07 0.07 55 1088.9
20260509210715 67 7 2.0 4.0 0.00 0.07 0.07 56 1088.9
20260509210213 67 306 3.0 10.0 0.00 0.07 0.07 56 1088.9
20260509205712 67 160 4.0 7.0 0.00 0.07 0.07 54 1089.2
20260509205212 68 248 11.0 14.0 0.00 0.07 0.07 53 1089.3
20260509204708 68 208 2.0 11.0 0.00 0.07 0.07 57 1089.2
20260509204205 67 257 7.0 10.0 0.00 0.07 0.07 56 1089.6
20260509203701 67 219 4.0 7.0 0.00 0.07 0.07 55 1089.4
20260509203159 67 40 2.0 4.0 0.00 0.07 0.07 57 1089.8
20260509202655 66 356 3.0 8.0 0.00 0.07 0.07 57 1089.3
20260509202150 66 228 3.0 6.0 0.00 0.07 0.07 60 1089.5
20260509201645 66 245 2.0 6.0 0.00 0.07 0.07 60 1089.6
20260509201143 66 308 3.0 6.0 0.00 0.07 0.07 59 1089.8
20260509200638 66 339 4.0 11.0 0.00 0.07 0.07 60 1089.8
20260509200134 66 288 5.0 7.0 0.00 0.07 0.07 57 1089.6
20260509195630 66 164 4.0 7.0 0.00 0.07 0.07 58 1089.6
20260509195125 65 273 8.0 15.0 0.00 0.07 0.07 61 1090.0
20260509194624 65 88 6.0 9.0 0.00 0.07 0.07 60 1090.0
20260509194122 66 256 5.0 10.0 0.00 0.07 0.07 60 1090.2
20260509193618 65 212 3.0 8.0 0.00 0.07 0.07 62 1090.3
20260509193113 65 268 6.0 7.0 0.00 0.07 0.07 63 1090.1
20260509192611 65 35 1.0 8.0 0.00 0.07 0.07 64 1090.1
20260509192105 64 202 2.0 6.0 0.00 0.07 0.07 66 1090.0
20260509191600 65 288 7.0 11.0 0.00 0.07 0.07 64 1090.1
20260509191057 65 336 0.0 4.0 0.00 0.07 0.07 64 1090.2
20260509190553 64 149 3.0 8.0 0.00 0.07 0.07 67 1090.3
20260509190051 64 263 4.0 11.0 0.00 0.07 0.07 64 1090.3
20260509185548 64 219 3.0 7.0 0.00 0.07 0.07 65 1090.5
20260509185044 64 330 1.0 4.0 0.00 0.07 0.07 67 1090.5
20260509184543 65 209 3.0 8.0 0.00 0.07 0.07 65 1090.5
20260509184039 63 20 0.0 3.0 0.00 0.07 0.07 71 1090.4
20260509183534 63 42 1.0 3.0 0.00 0.07 0.07 67 1090.5
20260509183030 64 215 2.0 6.0 0.00 0.07 0.07 67 1090.6
20260509182527 64 89 1.0 4.0 0.00 0.07 0.07 68 1090.6
20260509182024 64 352 2.0 7.0 0.00 0.07 0.07 66 1090.7
20260509181522 64 270 3.0 8.0 0.00 0.07 0.07 67 1090.8
20260509181020 63 297 2.0 7.0 0.00 0.07 0.07 69 1091.0
20260509180514 64 251 8.0 11.0 0.00 0.07 0.07 65 1090.8
20260509180013 64 254 4.0 4.0 0.00 0.07 0.07 67 1090.8
20260509175508 63 201 3.0 10.0 0.00 0.07 0.07 67 1090.8
20260509175005 63 358 2.0 8.0 0.00 0.07 0.07 69 1091.0
20260509174502 63 249 5.0 6.0 0.00 0.07 0.07 69 1090.7
20260509174002 62 165 3.0 4.0 0.00 0.07 0.07 72 1090.6
20260509173457 62 17 1.0 4.0 0.00 0.07 0.07 73 1090.8
20260509172953 60 344 1.0 3.0 0.00 0.07 0.07 76 1090.8
20260509172450 59 13 0.0 3.0 0.00 0.07 0.07 76 1091.0
20260509171946 59 273 4.0 6.0 0.00 0.07 0.07 75 1091.1
20260509171442 60 217 3.0 4.0 0.00 0.07 0.07 76 1090.8
20260509170938 60 225 3.0 4.0 0.00 0.07 0.07 76 1090.8
20260509170434 60 222 4.0 4.0 0.00 0.07 0.07 76 1091.0
20260509165930 60 325 2.0 6.0 0.00 0.07 0.07 75 1090.7
20260509165424 60 213 2.0 4.0 0.00 0.07 0.07 77 1090.7
20260509164920 60 27 3.0 4.0 0.00 0.07 0.07 77 1090.8
20260509164416 60 285 2.0 6.0 0.00 0.07 0.07 78 1090.7
20260509163912 59 38 3.0 4.0 0.00 0.07 0.07 79 1090.8
20260509163410 59 352 2.0 6.0 0.00 0.07 0.07 79 1090.8
20260509162908 59 298 2.0 3.0 0.00 0.07 0.07 80 1090.7
20260509162407 59 16 2.0 4.0 0.00 0.07 0.07 79 1090.7
20260509161903 60 292 2.0 6.0 0.00 0.07 0.07 77 1090.6
20260509161359 60 263 2.0 9.0 0.00 0.07 0.07 76 1090.6
20260509160855 59 37 0.0 7.0 0.00 0.07 0.07 83 1090.7
20260509160351 60 278 3.0 6.0 0.00 0.07 0.07 83 1090.8
20260509155846 60 326 3.0 3.0 0.00 0.07 0.07 85 1090.6
20260509155343 59 140 1.0 2.0 0.00 0.07 0.07 88 1090.5
20260509154839 57 63 2.0 4.0 0.00 0.07 0.07 90 1090.5
20260509154336 57 22 1.0 2.0 0.00 0.07 0.07 93 1090.7
20260509153833 55 291 2.0 3.0 0.00 0.07 0.07 94 1090.6
20260509153330 55 303 3.0 4.0 0.00 0.07 0.07 94 1090.7
20260509152827 55 60 1.0 4.0 0.00 0.07 0.07 95 1090.7
20260509152322 55 31 0.0 1.0 0.00 0.07 0.07 96 1090.5
20260509151821 55 352 0.0 1.0 0.00 0.07 0.07 96 1090.6
20260509151316 54 298 1.0 1.0 0.00 0.07 0.07 96 1090.8
20260509150815 54 9 1.0 3.0 0.00 0.07 0.07 96 1090.7
20260509150312 53 357 1.0 1.0 0.00 0.07 0.07 97 1091.0
20260509145810 53 9 1.0 2.0 0.00 0.07 0.07 97 1091.0
20260509145309 53 21 0.0 4.0 0.00 0.07 0.07 97 1090.8
20260509144806 53 328 2.0 2.0 0.00 0.07 0.07 97 1090.8
20260509144303 53 316 1.0 2.0 0.00 0.07 0.07 97 1091.2
20260509143800 53 14 0.0 0.0 0.00 0.07 0.07 97 1091.1
20260509143257 52 330 2.0 4.0 0.00 0.07 0.07 97 1091.0
20260509142753 52 339 1.0 2.0 0.00 0.07 0.07 97 1091.1
20260509142249 52 21 1.0 2.0 0.07 0.07 0.07 97 1091.0
20260509141745 52 274 2.0 3.0 0.07 0.07 0.07 97 1090.8
20260509141242 52 345 1.0 3.0 0.00 0.06 0.06 97 1091.0
20260509140739 52 28 0.0 1.0 0.05 0.06 0.06 97 1090.8
20260509140236 52 17 0.0 0.0 0.05 0.06 0.06 97 1091.0
20260509135733 52 61 1.0 2.0 0.00 0.05 0.05 97 1090.8
20260509135231 52 24 0.0 1.0 0.00 0.05 0.05 97 1091.0
20260509134728 52 36 0.0 2.0 0.00 0.05 0.05 97 1090.8
20260509134226 52 267 1.0 2.0 0.00 0.05 0.05 97 1091.2
20260509133723 52 44 0.0 1.0 0.00 0.05 0.05 98 1091.1
20260509133219 52 40 0.0 1.0 0.00 0.05 0.05 98 1091.2
20260509132718 52 45 0.0 1.0 0.00 0.05 0.05 98 1091.2
20260509132216 52 243 0.0 1.0 0.00 0.05 0.05 98 1091.1
20260509131712 51 358 1.0 1.0 0.00 0.05 0.05 98 1091.2
20260509131209 51 24 0.0 2.0 0.00 0.05 0.05 98 1091.0
20260509130705 51 5 0.0 0.0 0.00 0.05 0.05 98 1091.2
20260509130201 51 10 2.0 2.0 0.00 0.05 0.05 98 1091.2
20260509125658 51 19 0.0 0.0 0.00 0.05 0.05 98 1091.0
20260509125154 51 338 0.0 2.0 0.00 0.05 0.05 98 1091.4
20260509124651 51 28 1.0 2.0 0.07 0.05 0.05 98 1091.2
20260509124148 51 20 0.0 2.0 0.07 0.05 0.05 98 1091.2
20260509123646 51 5 0.0 1.0 0.07 0.04 0.04 98 1091.2
20260509123143 51 13 0.0 1.0 0.07 0.04 0.04 98 1091.2
20260509122638 51 2 2.0 2.0 0.00 0.03 0.03 98 1091.3
20260509122135 51 16 1.0 2.0 0.00 0.03 0.03 98 1091.3
20260509121632 51 20 0.0 2.0 0.00 0.03 0.03 98 1091.2
20260509121130 51 15 0.0 1.0 0.00 0.03 0.03 98 1091.3
20260509120627 51 20 0.0 0.0 0.00 0.03 0.03 98 1091.4
20260509120126 51 23 0.0 1.0 0.00 0.03 0.03 98 1091.5
20260509115623 51 19 0.0 0.0 0.00 0.03 0.03 98 1091.3
20260509115120 51 32 0.0 0.0 0.00 0.03 0.03 98 1091.2
20260509114618 50 16 0.0 0.0 0.00 0.03 0.03 98 1091.3
20260509114117 50 355 0.0 0.0 0.00 0.03 0.03 98 1091.2
20260509113614 50 26 0.0 1.0 0.05 0.03 0.03 98 1091.0
20260509113112 50 27 0.0 0.0 0.00 0.02 0.02 98 1091.2
20260509112608 50 26 0.0 0.0 0.00 0.02 0.02 98 1091.1
20260509112105 50 19 0.0 0.0 0.00 0.02 0.02 98 1091.2
20260509111603 50 19 0.0 0.0 0.00 0.02 0.02 98 1091.2
20260509111059 50 16 0.0 0.0 0.00 0.02 0.02 98 1091.0
20260509110556 50 25 0.0 0.0 0.00 0.02 0.02 98 1091.1
20260509110053 50 25 0.0 0.0 0.00 0.02 0.02 98 1091.0
20260509105552 50 17 0.0 0.0 0.00 0.02 0.02 98 1090.8
20260509105049 49 8 0.0 0.0 0.00 0.02 0.02 98 1091.1
20260509104546 49 18 0.0 0.0 0.00 0.02 0.02 98 1090.7
20260509104043 49 18 0.0 0.0 0.00 0.02 0.02 98 1091.0
20260509103540 49 31 0.0 0.0 0.00 0.02 0.02 98 1091.0
20260509103039 49 23 0.0 0.0 0.00 0.02 0.02 98 1091.1
20260509102536 49 23 0.0 0.0 0.00 0.02 0.02 98 1090.7
20260509102032 49 18 0.0 0.0 0.00 0.02 0.02 98 1090.8
20260509101529 49 34 0.0 0.0 0.00 0.02 0.02 98 1090.6
20260509101026 49 35 0.0 0.0 0.00 0.02 0.02 98 1091.0
20260509100523 49 35 0.0 0.0 0.00 0.02 0.02 98 1090.8
20260509100020 49 35 0.0 0.0 0.00 0.02 0.02 98 1090.7
20260509095516 49 35 0.0 0.0 0.00 0.02 0.02 98 1090.8
20260509095014 49 42 0.0 0.0 0.00 0.02 0.02 98 1091.0
20260509094510 49 38 0.0 0.0 0.00 0.02 0.02 98 1091.1
20260509094007 49 23 0.0 0.0 0.00 0.02 0.02 98 1091.2
20260509093506 49 22 0.0 0.0 0.00 0.02 0.02 98 1091.4
20260509093003 49 22 0.0 0.0 0.00 0.02 0.02 97 1091.4
20260509092500 49 21 0.0 0.0 0.00 0.02 0.02 97 1091.7
20260509091959 49 30 0.0 0.0 0.00 0.02 0.02 97 1091.5
20260509091456 49 18 0.0 0.0 0.00 0.02 0.02 97 1091.4
20260509090952 49 16 0.0 0.0 0.00 0.02 0.02 97 1091.4
20260509090450 49 34 0.0 0.0 0.00 0.02 0.02 97 1091.4
20260509085947 49 36 0.0 0.0 0.00 0.02 0.02 97 1091.4
20260509085444 49 29 0.0 0.0 0.00 0.02 0.02 97 1091.5
20260509084940 49 29 0.0 0.0 0.00 0.02 0.02 97 1091.5
20260509084437 49 29 0.0 0.0 0.07 0.02 0.02 97 1091.7
20260509083935 49 29 0.0 0.0 0.07 0.02 0.02 97 1091.7
20260509083432 49 29 0.0 0.0 0.00 0.01 0.01 97 1091.7
20260509082929 49 29 0.0 0.0 0.00 0.01 0.01 97 1091.8
20260509082426 48 20 0.0 0.0 0.00 0.01 0.01 97 1091.9
20260509081922 48 13 0.0 0.0 0.00 0.01 0.01 97 1092.1
20260509081420 49 14 0.0 0.0 0.00 0.01 0.01 97 1091.9
20260509080917 49 14 0.0 0.0 0.00 0.01 0.01 97 1091.8
20260509080415 49 33 0.0 0.0 0.00 0.01 0.01 97 1091.7
20260509075913 49 30 0.0 0.0 0.00 0.01 0.01 97 1091.8
20260509075410 49 17 0.0 0.0 0.00 0.01 0.01 97 1091.9
20260509074908 49 31 0.0 0.0 0.00 0.01 0.01 97 1092.1
20260509074405 49 10 0.0 0.0 0.00 0.01 0.01 97 1092.2
20260509073901 49 25 0.0 0.0 0.00 0.01 0.01 97 1092.2
20260509073358 49 36 0.0 0.0 0.00 0.01 0.01 97 1092.1
20260509072854 49 31 0.0 0.0 0.00 0.01 0.01 97 1091.8
20260509072350 49 30 0.0 0.0 0.00 0.01 0.01 97 1091.9
20260509071847 49 17 0.0 0.0 0.00 0.01 0.01 97 1091.9
20260509071344 49 18 0.0 0.0 0.00 0.01 0.01 97 1091.9
20260509070842 49 18 0.0 0.0 0.00 0.01 0.01 97 1091.9
20260509070338 49 12 0.0 0.0 0.00 0.01 0.01 97 1091.8
20260509065834 49 14 0.0 0.0 0.00 0.01 0.01 97 1091.8
20260509065331 49 31 0.0 0.0 0.00 0.01 0.01 97 1091.8
20260509064826 49 30 0.0 0.0 0.00 0.01 0.01 97 1091.7
20260509064325 49 24 0.0 0.0 0.00 0.01 0.01 97 1091.7
20260509063822 49 23 0.0 0.0 0.00 0.01 0.01 97 1091.8
20260509063318 49 42 0.0 0.0 0.00 0.01 0.01 97 1091.8
20260509062815 49 26 0.0 0.0 0.00 0.01 0.01 97 1092.2
20260509062312 49 26 0.0 0.0 0.00 0.01 0.01 97 1092.2
20260509061809 49 31 0.0 0.0 0.00 0.01 0.01 97 1092.3
20260509061308 49 29 0.0 0.0 0.00 0.01 0.01 97 1092.2
20260509060804 49 23 0.0 0.0 0.00 0.01 0.01 97 1092.1
20260509060301 49 33 0.0 0.0 0.00 0.01 0.01 97 1092.4
20260509055756 49 23 0.0 0.0 0.00 0.01 0.01 97 1092.4
20260509055252 49 23 0.0 0.0 0.00 0.01 0.01 97 1092.4
20260509054749 49 26 0.0 0.0 0.00 0.01 0.01 97 1092.3
20260509054246 49 25 0.0 0.0 0.00 0.01 0.01 97 1092.4
20260509053745 49 18 0.0 0.0 0.00 0.01 0.01 97 1092.5
20260509053241 49 17 0.0 0.0 0.00 0.01 0.01 97 1092.8
20260509052739 49 17 0.0 0.0 0.00 0.01 0.01 97 1092.8
20260509052237 49 16 0.0 0.0 0.00 0.01 0.01 97 1092.8
20260509051734 49 28 0.0 0.0 0.00 0.01 0.01 97 1092.9
20260509051232 49 28 0.0 0.0 0.00 0.01 0.01 97 1092.9
20260509050728 49 28 0.0 0.0 0.00 0.01 0.01 97 1092.7
20260509050225 49 28 0.0 0.0 0.00 0.01 0.01 97 1093.0
20260509045722 49 28 0.0 0.0 0.00 0.01 0.01 97 1092.9
20260509045219 49 29 0.0 0.0 0.05 0.01 0.01 97 1092.9
20260509044716 49 19 0.0 0.0 0.00 0.00 0.00 97 1093.2
20260509044214 49 18 0.0 0.0 0.00 0.00 0.00 96 1093.2
20260509043710 49 27 0.0 0.0 0.00 0.00 0.00 96 1093.3
20260509043206 49 28 0.0 0.0 0.00 0.00 0.00 96 1093.2
20260509042703 49 28 0.0 0.0 0.00 0.00 0.00 96 1093.3
20260509042158 49 28 0.0 0.0 0.00 0.00 0.00 96 1093.2
20260509041655 49 28 0.0 0.0 0.00 0.00 0.00 96 1093.5
20260509041153 49 26 0.0 0.0 0.00 0.00 0.00 96 1093.4
20260509040651 49 26 0.0 0.0 0.00 0.00 0.00 96 1093.6
20260509040148 49 26 0.0 0.0 0.00 0.00 0.00 96 1093.6
20260509035644 49 26 0.0 0.0 0.00 0.04 0.04 96 1093.7
20260509035141 50 20 0.0 0.0 0.00 0.04 0.04 96 1093.8
20260509034639 50 30 0.0 0.0 0.00 0.04 0.04 96 1093.9
20260509034136 50 31 0.0 0.0 0.00 0.04 0.04 96 1093.9